Wind_Speed
29 28 27 26 25 24 23 23 23 22 20 19 19 18 17 16 16 16 17 18 19 20 20 20 19 17 15 14 13 13 12 11 9 7 7 8 8 8 8 9 11 13
31 30 29 28 27 26 24 24 24 23 21 19 19 20 20 19 19 19 19 20 21 22 22 22 20 18 16 15 14 14 13 13 11 10 9 9 9 9 9 9 10 10
33 32 31 31 29 27 25 24 24 24 22 20 21 21 22 22 22 21 22 23 23 24 24 23 21 19 18 17 16 15 14 14 13 12 11 11 11 11 11 11 11 11
35 35 34 33 31 29 27 26 25 25 23 22 21 22 24 24 24 24 24 25 25 25 25 24 22 20 19 18 17 16 15 15 15 14 12 12 12 12 13 12 12 13
35 35 35 34 32 30 29 27 25 25 24 22 22 23 25 26 26 25 25 26 27 27 26 25 23 21 19 18 17 16 16 16 16 15 14 13 14 14 15 15 14 14
33 34 34 34 33 31 30 28 26 25 24 23 23 24 26 27 27 26 27 28 29 28 27 26 24 22 20 19 18 17 17 17 17 17 16 15 16 16 16 17 16 16
30 32 32 32 32 31 30 29 27 25 25 24 25 26 27 28 28 27 27 28 29 29 28 26 25 23 22 20 19 18 18 18 19 19 17 17 17 18 17 18 18 18
28 29 30 31 31 31 29 29 27 26 25 25 26 27 28 28 29 28 28 29 30 30 28 27 26 25 23 22 20 19 19 19 20 20 19 19 19 19 19 19 19 20
26 28 29 30 31 30 29 28 28 26 26 26 27 28 29 29 29 30 30 30 30 30 29 28 27 26 25 24 22 20 20 20 20 21 21 21 21 20 20 21 21 21
26 27 28 30 30 29 28 28 28 27 26 27 27 29 30 30 30 31 31 31 31 30 29 28 27 26 25 25 23 22 22 22 22 22 22 22 22 22 23 23 23 22
26 27 28 29 28 28 28 27 27 26 26 27 28 30 32 32 32 32 33 32 32 30 29 28 26 26 25 25 24 23 23 23 23 23 23 23 23 24 25 25 24 24
27 28 28 28 27 27 27 26 26 27 27 28 29 31 33 34 33 34 34 33 32 31 30 28 27 26 26 25 25 24 24 24 24 24 24 24 24 25 25 26 26 25
29 29 28 28 28 27 27 26 26 27 28 29 30 32 35 35 35 35 34 33 32 32 31 29 28 28 27 27 26 26 25 25 24 24 24 24 25 25 26 27 27 26
30 30 30 29 29 28 27 27 27 27 28 29 30 33 35 36 36 35 35 34 33 33 32 31 30 30 30 29 28 27 26 25 24 24 24 25 25 26 27 28 28 27
31 32 32 31 31 30 29 28 27 27 28 29 31 33 35 36 37 37 36 35 34 34 33 33 33 33 32 31 30 29 27 26 25 25 25 26 26 27 28 28 28 27
31 33 34 34 33 31 30 28 28 28 28 29 30 32 34 36 37 37 37 36 35 35 35 35 35 35 34 32 31 30 29 27 26 26 26 26 27 28 28 28 27 25
30 33 36 36 36 34 32 30 29 28 28 29 30 32 34 36 37 38 38 37 36 36 36 37 36 36 34 33 32 31 30 28 27 26 27 27 28 28 27 26 25 24
29 31 35 37 38 37 35 32 30 30 29 30 31 32 33 35 37 38 38 38 38 38 38 38 37 36 35 34 33 32 30 29 27 27 28 29 29 28 26 25 25 26
28 30 33 37 39 39 38 35 32 31 31 31 31 32 33 35 36 38 39 39 39 39 39 39 38 37 37 35 34 32 30 29 29 28 29 31 30 26 23 23 25 27
29 30 33 35 38 39 40 38 35 33 33 32 32 33 34 35 36 38 39 40 40 40 40 39 39 38 38 37 34 31 30 30 30 31 32 31 28 24 22 23 25 26
31 32 33 35 37 39 42 42 39 36 35 34 34 35 36 36 37 38 40 41 41 41 41 40 39 39 39 37 35 32 31 31 33 35 34 30 26 24 23 25 26 26
32 33 34 35 37 39 41 43 42 40 39 37 36 36 37 37 38 39 40 41 42 42 42 41 40 41 40 38 35 32 32 34 36 37 35 29 26 25 24 25 26 26
31 32 33 34 36 38 41 43 44 43 42 41 39 39 39 39 40 40 41 42 43 43 43 42 41 42 40 37 35 34 34 36 38 38 35 31 28 27 25 24 25 25
25 26 28 29 31 33 37 41 43 44 45 44 42 42 42 41 40 41 41 42 44 44 44 43 43 42 40 38 36 36 36 37 39 39 37 33 30 28 26 24 24 23
22 22 23 26 26 28 31 36 38 41 44 46 45 44 44 43 42 42 43 44 45 45 45 44 44 42 41 39 38 38 37 38 40 41 38 34 31 29 26 24 23 24
24 24 24 25 26 26 29 32 34 37 40 45 47 48 47 46 45 45 45 45 46 46 46 46 45 43 42 40 39 39 39 40 42 42 39 35 32 30 28 25 24 24
Wind_Direction
236 238 239 241 243 244 243 244 246 247 241 228 219 215 213 210 210 210 204 200 199 199 203 209 214 217 218 221 226 231 238 247 259 278 296 308 318 329 342 350 355 357
238 240 241 243 243 243 244 245 247 248 244 232 219 213 211 208 208 207 202 199 199 201 205 211 216 219 221 225 230 234 240 247 256 269 282 290 301 312 322 329 336 345
238 240 242 245 246 246 246 246 247 248 245 234 222 214 211 208 207 206 202 199 199 203 208 213 217 220 223 228 232 236 241 247 254 263 272 281 291 303 310 316 321 328
238 240 242 245 247 247 245 244 244 246 243 234 223 215 211 209 207 205 201 199 200 205 210 214 217 221 224 229 234 238 243 247 252 260 269 276 284 292 297 304 310 315
239 241 242 244 246 246 244 242 240 241 240 232 223 218 214 211 209 206 202 200 201 206 212 216 219 223 227 231 236 240 245 249 253 260 266 272 276 282 287 293 298 303
240 240 240 241 243 244 243 241 239 239 238 231 223 219 215 212 211 208 204 200 202 208 213 217 222 227 230 234 238 243 249 253 256 261 265 269 272 276 281 286 291 295
239 239 239 240 241 243 242 241 239 237 235 230 223 218 215 213 212 210 207 203 204 208 213 218 223 229 233 237 241 246 252 256 259 263 266 269 271 274 278 282 285 288
238 238 239 240 241 241 241 240 237 235 234 230 223 217 215 213 212 211 210 207 207 210 213 217 223 228 234 239 242 246 251 256 260 264 267 269 271 273 275 277 279 281
239 239 239 239 240 240 239 238 237 235 233 230 223 217 215 213 212 212 212 211 211 211 213 217 222 227 233 238 242 245 249 254 258 262 266 269 272 274 274 274 275 276
241 242 241 241 241 240 238 237 236 235 232 229 223 217 214 213 212 213 213 214 213 213 215 217 221 226 232 237 241 245 249 253 257 260 263 267 270 273 274 274 275 274
241 242 243 244 242 241 239 236 235 234 231 228 222 216 213 213 214 214 214 214 215 216 218 219 222 227 232 237 240 244 248 252 256 259 262 266 270 272 274 275 276 275
241 243 244 245 243 242 240 236 233 231 229 226 221 216 213 213 215 215 215 215 217 219 221 222 224 228 232 237 240 244 248 251 254 258 262 266 270 273 275 275 275 274
240 244 245 244 243 242 240 236 233 230 227 225 221 216 214 215 216 216 216 217 218 221 222 224 226 229 233 236 239 242 246 249 254 258 262 266 270 272 274 274 274 273
238 242 244 244 244 243 240 237 234 231 228 225 222 218 215 216 217 218 218 219 220 222 224 225 226 229 232 235 238 241 245 249 253 258 262 265 267 269 272 273 274 274
236 239 242 243 244 243 241 239 236 233 229 226 223 220 217 217 218 220 220 221 221 223 224 226 227 229 231 234 236 239 244 248 252 256 259 262 265 268 271 272 275 279
237 238 239 241 243 243 241 240 238 235 231 228 225 222 220 219 219 220 222 222 223 224 225 227 228 230 231 233 235 238 243 247 250 253 257 260 264 267 270 274 279 282
241 240 239 240 241 242 241 239 238 236 234 231 228 224 222 221 221 222 223 223 224 225 227 228 230 231 232 232 234 237 241 246 249 251 255 258 262 265 271 277 280 281
242 244 243 240 240 241 242 240 237 236 234 232 230 227 224 222 222 223 224 225 225 227 228 230 231 232 233 233 233 236 241 245 248 250 254 257 260 264 270 277 282 286
244 245 246 244 241 240 241 241 238 236 234 233 232 229 227 225 225 225 225 226 227 229 230 232 232 233 234 234 234 236 240 245 248 250 252 255 258 263 270 280 289 293
246 246 247 245 243 240 239 240 240 237 235 233 232 231 230 229 227 226 227 228 229 230 232 232 232 233 235 235 234 236 240 245 248 249 249 252 258 264 272 280 285 286
247 246 246 245 242 239 238 239 239 239 237 233 231 231 231 231 229 229 229 230 231 231 233 233 232 233 234 235 234 235 239 244 248 249 249 252 257 262 267 272 276 279
245 244 244 244 242 240 238 238 238 239 238 235 232 232 232 231 230 230 229 230 231 232 234 234 233 233 234 234 233 234 239 243 247 249 250 251 253 255 258 266 275 281
247 246 245 245 244 243 241 239 238 237 238 237 234 232 232 232 231 230 230 230 231 232 234 234 233 233 234 234 233 234 238 243 247 251 251 249 249 251 257 268 279 283
249 249 252 253 253 252 249 245 241 238 237 238 237 234 233 232 232 231 231 232 232 232 234 234 234 234 234 233 233 234 238 243 247 250 252 250 249 251 258 271 281 285
252 250 251 253 256 258 255 251 247 244 240 238 239 238 235 233 232 232 232 232 233 233 234 234 234 234 233 232 232 234 237 243 247 250 252 252 251 253 260 270 279 285
257 257 257 259 261 261 258 254 251 249 245 241 240 240 239 235 232 233 234 233 233 233 234 234 234 234 233 232 233 234 237 242 247 250 253 253 253 254 261 271 279 283
Height
3181 3182 3184 3186 3187 3189 3190 3192 3193 3194 3195 3196 3197 3198 3200 3201 3203 3204 3206 3207 3208 3210 3211 3212 3213 3214 3215 3215 3216 3216 3216 3216 3216 3216 3216 3216 3216 3216 3215 3215 3214 3213
3179 3180 3181 3183 3184 3186 3188 3190 3191 3192 3193 3194 3195 3196 3197 3199 3200 3202 3203 3205 3207 3208 3209 3210 3211 3212 3213 3214 3214 3215 3215 3215 3215 3215 3215 3215 3215 3215 3214 3214 3213 3213
3176 3177 3179 3180 3182 3184 3186 3188 3189 3190 3191 3192 3193 3194 3195 3197 3198 3200 3201 3203 3205 3206 3207 3208 3209 3211 3212 3212 3213 3213 3213 3214 3214 3214 3214 3214 3214 3213 3213 3213 3213 3212
3173 3175 3176 3178 3180 3182 3183 3185 3186 3187 3189 3190 3192 3193 3194 3195 3196 3197 3199 3201 3202 3204 3205 3206 3208 3209 3210 3210 3211 3211 3212 3212 3212 3212 3212 3212 3212 3212 3212 3212 3212 3211
3170 3172 3174 3175 3177 3179 3180 3182 3183 3185 3187 3188 3190 3191 3192 3193 3194 3196 3197 3199 3200 3202 3203 3204 3206 3207 3208 3208 3209 3209 3210 3210 3210 3210 3211 3211 3211 3211 3211 3210 3210 3210
3168 3169 3171 3172 3174 3176 3177 3179 3181 3183 3184 3186 3188 3189 3190 3191 3193 3194 3196 3197 3198 3200 3201 3202 3204 3205 3206 3206 3207 3207 3207 3208 3208 3208 3209 3209 3209 3209 3209 3209 3208 3208
3165 3166 3168 3170 3171 3173 3174 3176 3179 3180 3182 3184 3185 3186 3188 3189 3191 3192 3194 3195 3196 3198 3199 3200 3201 3203 3204 3204 3204 3205 3205 3206 3206 3206 3206 3207 3207 3207 3207 3207 3206 3207
3162 3164 3166 3167 3168 3170 3171 3173 3176 3178 3180 3181 3183 3184 3186 3187 3189 3191 3192 3193 3194 3195 3197 3198 3199 3200 3201 3201 3202 3203 3203 3203 3204 3204 3204 3204 3205 3205 3205 3205 3204 3205
3160 3161 3163 3164 3165 3167 3168 3170 3173 3175 3177 3178 3180 3182 3183 3185 3187 3188 3190 3191 3192 3193 3194 3196 3197 3198 3199 3199 3200 3200 3201 3201 3201 3202 3202 3202 3202 3202 3202 3202 3202 3202
3157 3159 3160 3161 3162 3164 3166 3168 3170 3172 3174 3176 3178 3179 3181 3183 3184 3186 3187 3188 3189 3190 3192 3193 3194 3195 3196 3197 3198 3198 3198 3199 3199 3199 3200 3200 3200 3200 3200 3200 3200 3200
3155 3156 3157 3158 3160 3161 3163 3165 3167 3169 3171 3173 3174 3176 3178 3180 3181 3183 3184 3185 3187 3188 3189 3191 3192 3193 3193 3194 3195 3196 3196 3196 3197 3197 3197 3198 3198 3197 3197 3197 3197 3197
3152 3154 3154 3156 3157 3159 3160 3162 3164 3166 3167 3169 3171 3173 3175 3177 3178 3180 3181 3183 3185 3186 3187 3188 3189 3190 3191 3191 3192 3193 3193 3193 3194 3195 3195 3195 3195 3195 3195 3194 3194 3194
3150 3151 3152 3153 3155 3156 3158 3159 3161 3162 3164 3166 3168 3170 3172 3173 3175 3177 3179 3181 3182 3183 3184 3185 3186 3187 3187 3188 3189 3190 3190 3191 3191 3192 3192 3193 3193 3192 3191 3191 3191 3191
3147 3148 3149 3151 3152 3154 3155 3156 3158 3159 3160 3163 3165 3166 3168 3170 3172 3174 3176 3177 3179 3180 3181 3182 3183 3183 3184 3185 3186 3187 3187 3188 3189 3190 3190 3190 3189 3189 3188 3188 3187 3187
3144 3145 3147 3148 3149 3151 3152 3153 3155 3156 3157 3159 3161 3163 3165 3167 3169 3170 3172 3174 3175 3176 3177 3178 3179 3179 3180 3182 3183 3184 3185 3186 3187 3187 3187 3186 3186 3185 3185 3185 3185 3184
3141 3142 3143 3145 3146 3147 3149 3150 3151 3153 3154 3156 3157 3159 3161 3163 3165 3166 3168 3169 3171 3172 3173 3174 3175 3176 3177 3179 3180 3181 3182 3183 3183 3184 3183 3183 3182 3182 3182 3182 3182 3181
3137 3138 3140 3141 3142 3144 3145 3147 3148 3149 3151 3152 3153 3155 3157 3159 3160 3162 3163 3165 3167 3168 3169 3170 3171 3173 3174 3176 3177 3178 3178 3179 3180 3180 3180 3179 3178 3178 3179 3179 3179 3178
3133 3134 3136 3137 3139 3140 3141 3143 3145 3146 3147 3148 3149 3151 3153 3154 3156 3158 3159 3161 3162 3163 3164 3166 3167 3169 3171 3172 3174 3174 3175 3176 3176 3176 3176 3174 3174 3174 3175 3176 3176 3175
3129 3130 3132 3133 3135 3136 3138 3139 3141 3141 3143 3144 3146 3148 3149 3150 3152 3154 3155 3156 3158 3159 3160 3162 3164 3166 3167 3168 3170 3171 3172 3172 3172 3172 3171 3170 3170 3171 3172 3173 3174 3173
3125 3126 3127 3129 3131 3132 3133 3134 3136 3137 3139 3141 3142 3144 3144 3145 3147 3149 3151 3152 3153 3155 3156 3158 3160 3161 3163 3164 3166 3167 3168 3167 3167 3167 3166 3166 3167 3168 3169 3171 3171 3169
3120 3122 3123 3125 3126 3128 3129 3130 3132 3133 3135 3136 3138 3139 3140 3142 3144 3145 3146 3148 3149 3151 3152 3154 3155 3157 3158 3160 3162 3163 3163 3162 3162 3162 3162 3164 3164 3164 3165 3166 3165 3163
3116 3117 3119 3120 3122 3123 3125 3126 3127 3129 3131 3132 3134 3135 3136 3137 3139 3140 3142 3144 3145 3147 3148 3149 3151 3152 3154 3156 3158 3158 3158 3157 3157 3157 3159 3161 3161 3160 3161 3162 3160 3159
3112 3113 3114 3116 3117 3119 3121 3122 3123 3125 3127 3128 3129 3130 3131 3132 3134 3136 3138 3139 3141 3142 3143 3144 3146 3148 3150 3152 3153 3153 3153 3152 3152 3153 3155 3157 3157 3157 3157 3157 3156 3155
3108 3110 3112 3113 3114 3116 3117 3118 3120 3121 3122 3124 3125 3126 3127 3128 3130 3132 3134 3135 3136 3137 3138 3140 3142 3143 3146 3148 3148 3148 3148 3148 3148 3148 3150 3152 3153 3153 3154 3153 3152 3150
3105 3107 3109 3110 3111 3112 3113 3114 3115 3117 3119 3120 3122 3122 3123 3125 3126 3127 3128 3129 3131 3132 3134 3135 3137 3139 3141 3143 3143 3143 3144 3144 3143 3143 3145 3147 3148 3149 3149 3149 3147 3146
3102 3103 3104 3106 3108 3109 3109 3110 3110 3112 3113 3116 3117 3118 3119 3120 3121 3121 3122 3123 3125 3126 3128 3130 3132 3134 3136 3138 3138 3139 3140 3139 3138 3139 3141 3143 3144 3145 3144 3144 3143 3142